Miscellaneous Local Product
Issued by NWS North Platte, NE

Home | Current Version | Previous Version | Text Only | Print | Product List | Glossary On
Versions: 1 2 3 4 5 6 7 8 9 10 11 12 13 14 15 16 17 18 19 20 21 22 23 24 25 26 27 28 29 30 31 32 33 34 35 36 37 38 39 40 41 42 43 44 45 46 47 48 49 50
000
AXUS43 KLBF 022110
MISLBF


WESTERN AND NORTH CENTRAL NEBRASKA HOURLY WEATHER ROUNDUP
NATIONAL WEATHER SERVICE NORTH PLATTE NE
400 PM CDT TUE SEP 02 2014

***STATIONS NOT REPORTING VARIABLES SUCH AS SKY/WEATHER OR
PRESSURE ARE PROVIDED BY THE NEBRASKA DEPARTMENT OF
ROADS...RAWS...AND APRS NETWORKS...AND ARE NOT UNDER
NATIONAL WEATHER SERVICE QUALITY CONTROL***

...OBSERVATIONS IN AND NEAR THE EASTERN PANHANDLE OF NEBRASKA...

CITY           SKY/WX    TMP DP  RH WIND       PRES   REMARKS
PINE RIDGE     SUNNY     81  45  28 W9        29.89F
CHADRON        SUNNY     84  40  21 W10G20    29.88F
ALLIANCE       SUNNY     85  45  24 SW15G21   29.93F
SIDNEY         SUNNY     83  55  38 SW20      29.99F
WHITECLAY        N/A     81  44  26 W10         N/A
RUSHVILLE        N/A     88  25  10 W17         N/A
GORDON           N/A     88  38  16 NE71        N/A
CRESCENT LAKE    N/A     82  53  36 S10G21      N/A
LISCO            N/A     87  48  25 S14         N/A
BIG SPRINGS      N/A     81  64  56 S8          N/A
$$

...OBSERVATIONS IN NORTH CENTRAL NEBRASKA...

CITY           SKY/WX    TMP DP  RH WIND       PRES   REMARKS
VALENTINE      SUNNY     82  52  35 SW14      29.90F
THEDFORD       SUNNY     82  60  48 SW16G26   29.94F
AINSWORTH      SUNNY     79  52  39 S10G18    29.92F
O`NEILL        SUNNY     80  53  39 SW10      29.95F
ORD            SUNNY     80  54  40 S8        29.94F
BROKEN BOW     SUNNY     82  59  45 S14G26    29.96F
SPRINGVIEW       N/A     81  53  37 S7G15       N/A
ROSE             N/A     84  59  41 SE14        N/A
NEWPORT          N/A     81  53  37 S14         N/A
COMSTOCK         N/A     86  60  40 S13         N/A
CHAMBERS         N/A     79  53  40 S3G12       N/A
EWING            N/A     79  61  54 S6          N/A
$$

...OBSERVATIONS IN SOUTHWEST NEBRASKA AND FAR NORTHEAST COLORADO...

CITY           SKY/WX    TMP DP  RH WIND       PRES   REMARKS
WRAY             N/A     86  55  33 S15G26    29.98F
HOLYOKE        FAIR      84  55  37 S16G23    29.97F
IMPERIAL       SUNNY     85  54  34 S17G23    29.97F
OGALLALA       PTSUNNY   80  62  53 SW13      29.95F
NORTH PLATTE   PTSUNNY   82  61  48 S15G23    29.95F
MCCOOK         SUNNY     87  54  32 S16G23    29.96F
LEXINGTON      SUNNY     82  63  52 S12G18    29.97F
PAXTON           N/A     79  64  59 S16         N/A
SUTHERLAND       N/A     83  63  50 S10         N/A
BRADY            N/A     79  61  54 CALM        N/A
GOTHENBURG       N/A     80  56  43 S9          N/A
CALLAWAY         N/A     78  67  68 S17         N/A
$$

...SOME WEATHER OBSERVATIONS FROM AROUND THE REGION...

CITY           SKY/WX    TMP DP  RH WIND       PRES   REMARKS
DENVER         MOSUNNY   86  36  16 NW9       30.01F
LARAMIE        SUNNY     76  31  19 W22G35    30.12F
CHEYENNE       SUNNY     80  35  19 S13G18    30.05F
SCOTTSBLUFF    SUNNY     87  41  19 W9        29.92F
RAPID CITY     SUNNY     80  47  31 SE6       29.87F
PIERRE         SUNNY     83  48  29 SW12      29.82F
WINNER         FAIR      83  46  27 SW10      29.88F
SIOUX FALLS    MOSUNNY   76  55  48 SW9       29.93F
OMAHA          MOSUNNY   80  53  39 W5        29.97F
GRAND ISLAND   SUNNY     80  58  46 S10       29.98F
KANSAS CITY    MOSUNNY   79  68  69 S8        29.97F
WICHITA        MOSUNNY   87  64  46 S12G18    29.95F
HAYS           PTSUNNY   82  66  57 S16G24    29.98F
LIBERAL        PTSUNNY   82  64  54 E12G17    30.00F
GOODLAND       MOSUNNY   84  56  38 S18G29    30.01F
$$



USA.gov is the U.S. government's official web portal to all federal, state and local government web resources and services.